Printer-friendly version

IAU Minor Planet Center

Minor Planet Center

MPEC 2006-C46 : 2006 CM10

The following Minor Planet Electronic Circular may be linked-to from your own Web pages, but must not otherwise be redistributed electronically.


Read MPEC 2006-C45 Read MPEC 2006-C47


M.P.E.C. 2006-C46                                Issued 2006 Feb. 8, 12:46 UT

     The Minor Planet Electronic Circulars contain information on unusual
         minor planets and routine data on comets.  They are published
   on behalf of Commission 20 of the International Astronomical Union by the
          Minor Planet Center, Smithsonian Astrophysical Observatory,
                          Cambridge, MA 02138, U.S.A.

                  Supported in part by the Brinson Foundation
                  Supported in part by the TABASGO Foundation
             Prepared using the Tamkin Foundation Computer Network

                              MPC@CFA.HARVARD.EDU
          URL http://cfa-www.harvard.edu/iau/mpc.html  ISSN 1523-6714

                                   2006 CM10

Observations:
     K06C10M* C2006 02 07.29787 08 55 00.51 +06 34 00.5          19.2 V EC046703
     K06C10M  C2006 02 07.30427 08 54 59.25 +06 34 24.6          19.5 V EC046703
     K06C10M  C2006 02 07.31071 08 54 57.96 +06 34 48.7          19.0 V EC046703
     K06C10M  C2006 02 07.31713 08 54 56.62 +06 35 11.5          19.2 V EC046703
     K06C10M  C2006 02 07.35569 08 54 48.92 +06 37 32.9          19.2 V EC046703
     K06C10M  C2006 02 07.36323 08 54 47.39 +06 38 01.9          19.1 V EC046703
     K06C10M  C2006 02 07.37079 08 54 45.97 +06 38 28.4          19.4 V EC046703
     K06C10M  C2006 02 07.37836 08 54 44.48 +06 38 56.6          19.0 V EC046703
     K06C10M 5C2006 02 08.17650 08 52 12.07 +07 30 26.5          19.0 R EC046673
     K06C10M 5C2006 02 08.17859 08 52 11.57 +07 30 36.0                 EC046673
     K06C10M 5C2006 02 08.18738 08 52 09.73 +07 31 11.6                 EC046673
     K06C10M 5C2006 02 08.19352 08 52 08.37 +07 31 36.9                 EC046673

Observer details:
673 Table Mountain Observatory, Wrightwood.  Observer J. Young.  0.6-m f/16
    Cassegrain + CCD.
703 Catalina Sky Survey.  Observer E. C. Beshore.  Measurers E. C. Beshore,
    E. J. Christensen, G. J. Garradd, A. D. Grauer, R. E. Hill, R. A. Kowalski,
    S. M. Larson, R. H. McNaught.  0.68-m Schmidt + CCD.

Orbital elements:
2006 CM10                                           PHA, Earth MOID = 0.0239 AU
Epoch 2006 Mar. 6.0 TT = JDT 2453800.5                  MPC
M 348.80069              (2000.0)            P               Q
n   0.31239234     Peri.   91.15316     -0.55262898     +0.81365162
a   2.1511423      Node   143.35655     -0.83282987     -0.53093077
e   0.7028250      Incl.   17.60135     -0.03155337     -0.23681969
P   3.16           H   21.6           G   0.15           U   9
Residuals in seconds of arc
060207 703  1.1+  0.3-    060207 703  0.5+  0.1-    060208 673  1.5+  0.4-
060207 703  1.4+  0.4+    060207 703  0.2+  1.2+    060208 673  0.7+  0.6+
060207 703  1.3+  0.9+    060207 703  1.5+  0.1-    060208 673  1.3+  0.3+
060207 703  0.4+  0.2+    060207 703  1.8+  0.2+    060208 673  0.7+  0.5+

Ephemeris:
2006 CM10                a,e,i = 2.15, 0.70, 18                  q = 0.6393
Date    TT    R. A. (2000) Decl.     Delta      r     Elong.  Phase     V
2006 02 04    09 03.57   +03 46.3    0.251    1.231   167.3    10.1    19.7
2006 02 06    08 58.73   +05 20.7    0.226    1.209   168.6     9.3    19.4
2006 02 08    08 52.76   +07 18.9    0.202    1.186   168.8     9.3    19.1
2006 02 10    08 45.27   +09 48.8    0.180    1.163   167.3    10.8    18.9
2006 02 12    08 35.61   +13 01.2    0.158    1.139   164.0    13.9    18.7
2006 02 14    08 22.76   +17 11.4    0.137    1.116   158.7    18.7    18.5
2006 02 16    08 04.93   +22 40.1    0.118    1.093   151.4    25.6    18.3
2006 02 18    07 38.82   +29 49.2    0.102    1.070   141.6    35.0    18.2
2006 02 20    06 58.19   +38 42.8    0.0890   1.047   128.8    47.4    18.2
2006 02 22    05 52.12   +48 11.7    0.0815   1.024   112.9    62.9    18.4
2006 02 24    04 11.88   +54 47.8    0.0804   1.001    95.6    79.9    18.9
2006 02 26    02 20.59   +55 09.6    0.0861   0.978    79.2    95.8    19.7
2006 02 28    00 57.75   +50 56.2    0.0972   0.955    65.8   108.8    20.5
2006 03 02    00 06.36   +45 36.3    0.112    0.932    55.6   118.7    21.4
2006 03 04    23 34.34   +40 45.0    0.130    0.910    48.1   125.8    22.3
2006 03 06    23 13.27   +36 40.9    0.149    0.888    42.6   130.9    23.0

Timothy B. Spahr             (C) Copyright 2006 MPC           M.P.E.C. 2006-C46

Read MPEC 2006-C45 Read MPEC 2006-C47


Our Web policy. Index to the CBAT/MPC/ICQ pages.


Valid HTML 4.01!